Regional Weather Roundup
Issued by NWS

Home | Current Version | Previous Version | Graphics & Text | Print | Product List | Glossary Off
Versions: 1 2 3 4 5 6 7 8 9 10 11 12 13 14 15 16 17 18 19 20 21 22 23 24 25 26 27 28 29 30 31 32 33 34 35 36 37 38 39 40 41 42 43 44 45 46 47 48 49 50

000
ASUS43 KDTX 250310
RWRMI
MICHIGAN HOURLY REGIONAL WEATHER ROUNDUP
NATIONAL WEATHER SERVICE DETROIT/PONTIAC MI
1100 PM EDT TUE MAY 24 2016

NOTE: "FAIR" INDICATES FEW OR NO CLOUDS BELOW 12,000 FEET WITH NO
SIGNIFICANT WEATHER AND/OR OBSTRUCTION TO VISIBILITY.

MIZ047>049-052>055-059>063-066>070-074>076-081>083-250400-
SOUTHEAST LOWER MICHIGAN

CITY           SKY/WX    TMP DP  RH WIND       PRES   REMARKS
ADRIAN         CLEAR     67  50  54 SW3       30.03R
ALMA           LGT RAIN  66  57  71 SW8       29.98S
ANN ARBOR      CLEAR     60  53  77 W3        30.02R
BAD AXE        MOCLDY    62  52  71 CALM      29.99R
CARO           CLEAR     60  54  80 CALM      29.98R
DETROIT CITY   CLEAR     69  49  48 S6        30.01R
DETROIT        MOCLDY    70  51  51 SW7       30.02R
FLINT          PTCLDY    72  51  47 S6        30.00R
GROSSE ILE     CLEAR     72  52  49 SW3       30.01R
HILLSDALE      CLEAR     68  45  42 S3        30.04S
HOWELL         CLEAR     70  49  47 S3        30.02R

CITY           SKY/WX    TMP DP  RH WIND       PRES   REMARKS
JACKSON        CLEAR     69  49  48 S6        30.03R
LAMBERTVILLE   CLEAR     71  47  42 S5        30.04R
LANSING        CLEAR     70  53  54 S5        30.01R
LAPEER         FAIR      62  53  71 CALM      30.00S
MASON          CLEAR     68  52  56 SE5       30.01S
MONROE         CLEAR     67  51  56 S8        30.02R
PONTIAC        CLEAR     71  52  50 SW3       30.01R
PORT HOPE        N/A     71  51  49 SW5       29.96R
PORT HURON     CLEAR     66  48  52 SW3       30.00S
TRI CITIES     CLOUDY    73  48  41 S5        29.99R
MIDLAND        CLOUDY    67  57  70 CALM      29.97S
TROY           CLEAR     76  49  38 SW6       30.03R
SAGINAW HB     PTCLDY    68  50  52 S5        29.98S
$$
MIZ043>046-050>051-056>058-064>065-071>073-077>080-250400-
SOUTHWEST LOWER MICHIGAN

CITY           SKY/WX    TMP DP  RH WIND       PRES   REMARKS
BATTLE CREEK   CLEAR     68  50  52 S8        30.02R
BENTON HARBOR  PTCLDY    74  51  44 S7        29.98R
BIG RAPIDS     RAIN      64  61  92 W5        30.00R
COLDWATER      CLEAR     67  50  53 S6        30.02R
FREMONT        MOCLDY    68  55  64 N3        29.98R
HOLLAND        CLOUDY    69  54  58 S6        29.98R
GRAND RAPIDS   CLOUDY    72  55  55 S7        29.98S
IONIA          MOCLDY    64  53  67 S5        29.99R
KALAMAZOO      CLEAR     67  54  63 S5        30.02R
LUDINGTON      MOCLDY    63  56  78 CALM      29.97R
MARSHALL       CLEAR     69  52  53 CALM      30.01R
MOUNT PLEASANT CLOUDY    68  55  62 CALM      29.98R
MUSKEGON       MOCLDY    71  48  43 CALM      29.97R
SOUTH HAVEN    PTCLDY    73  52  48 S3        29.98R
$$
MIZ016>042-250400-
NORTHERN LOWER MICHIGAN

CITY           SKY/WX    TMP DP  RH WIND       PRES   REMARKS
ALPENA         CLOUDY    66  50  56 NW5       29.97R
BEAVER ISLAND  CLEAR     51  51 100 CALM      29.97R FOG
BELLAIRE       CLOUDY    56  54  94 CALM      29.98R FOG
CADILLAC       MOCLDY    68  55  61 SW5       29.99R
CHARLEVOIX     PTCLDY    56  56  99 SE5       30.00R FOG
FRANKFORT      PTCLDY    66  55  66 NW6       29.96R
GAYLORD        CLOUDY    59  55  87 S9        30.00S
GRAYLING       MOCLDY    67  50  54 NW6       30.00R
HARBOR SPRINGS   N/A     55  54  97 CALM      29.96S FOG
HOUGHTON LAKE  CLOUDY    71  45  39 CALM      29.99R
MANISTEE       MOCLDY    64  52  63 CALM      29.97S
OSCODA         CLOUDY    70  48  45 E5        29.97R
PELLSTON       PTCLDY    59  57  93 SE5       29.96R FOG
ROGERS CITY    RAIN      61  56  83 W3        29.98F
TRAVERSE CITY  PTCLDY    60  51  72 CALM      29.97R
$$
MIZ007>008-015-250400-
EASTERN UPPER MICHIGAN

CITY           SKY/WX    TMP DP  RH WIND       PRES   REMARKS
KINROSS          N/A     57  57 100 SE3       29.96R
MACKINAC ISLAN PTCLDY    56  56 100 S8        29.96R
NEWBERRY       CLOUDY    60  59  97 N3        29.96S FOG
S. S. MARIE    FOG       55  53  93 NW5       29.96R VSB 1/4
MUNISING         N/A     48  47  96 CALM      29.99R
$$
MIZ004>006-011>014-085-250400-
CENTRAL UPPER MICHIGAN

CITY           SKY/WX    TMP DP  RH WIND       PRES   REMARKS
MANISTIQUE     CLOUDY    52  51  97 CALM      29.97R FOG
ESCANABA       CLOUDY    57  55  94 CALM      29.96R
MENOMINEE      CLEAR     58  57  97 CALM      29.95S
SAWYER-GWINN   DRZL/FOG  48  47  96 N6        29.99S VSB 1/2
$$
MIZ001>003-009>011-084-250400-
WESTERN UPPER MICHIGAN

CITY           SKY/WX    TMP DP  RH WIND       PRES   REMARKS
IRON MOUNTAIN  MOCLDY    62  60  93 N3        29.96R
HOUGHTON       CLOUDY    51  49  92 E7        30.02R FOG
COPPER HARBOR    N/A     47  47 100 VRB3      30.03R
IRONWOOD       CLEAR     54  54 100 CALM      29.98
$$

ABBREVIATIONS USED IN REMARKS
   TC - TEMPERATURE IN CELSIUS
  WCI - WIND CHILL INDEX
   HX - HEAT INDEX
  VSB - VISIBILITY




USA.gov is the U.S. government's official web portal to all federal, state and local government web resources and services.